[[{"header":{"parameterUnit":"m.s-1","parameterCategory":1,"la1":30.2991,"la2":30.254,"lo1":-89.0895,"lo2":-89.0444,"dy":0.0017,"dx":0.0017,"nx":28,"ny":28,"refTime":"2024-02-04T09:00:00:Z","depth":0,"parameterNumber":2,"parameterNumberName":"U-component_of_WINDS"},"data":[0,0,0,0,0,0,0,0,0,0,0,0,0,0,0,0,0,0,0,0,0,0,0,0,0,0,0,0,0,0,0,0,0,0,0,0,0,0,0,0,0,0,0,0,0,0,0,0,0,0,0,0,0,0,0,0,0,0,0.6236,0.6234,0,0.6042,0.604,0.6037,0.5941,0.5941,0.5941,0.5941,0.5738,0.5733,0.5727,0,0,0,0,0,0,0,0,0,0,0,0,0,0.6518,0.6514,0.6236,0.6234,0.6231,0.6042,0.604,0.6037,0.5941,0.5941,0.5941,0.5941,0.574,0.5733,0.5727,0,0,0,0,0,0,0,0,0,0,0,0,0,0.6367,0.6512,0.6237,0.6161,0.6152,0.6043,0.6039,0.6036,0.5941,0.5941,0.5941,0.5941,0.5742,0.5734,0.5726,0.5676,0,0,0.5701,0.5698,0,0,0,0,0,0,0,0,0.6376,0.6357,0.6174,0.6166,0.6156,0.6016,0.6064,0.5915,0.5941,0.6021,0.5941,0.5941,0.583,0.5815,0.5778,0.5666,0.5657,0.57,0.5696,0.5692,0.569,0,0,0,0,0,0,0,0.6387,0.6365,0.6159,0.6172,0.6161,0.6135,0.6113,0.6036,0.5928,0.6014,0.6007,0.5985,0.5825,0.5786,0.5773,0.5654,0.5701,0.5693,0.5688,0.5685,0.5488,0.5488,0,0,0,0,0,0,0.641,0.6374,0.6165,0.6153,0.6268,0.613,0.6106,0.6061,0.5929,0.5908,0.5986,0.5982,0.58,0.5782,0.5765,0.5696,0.5692,0.5684,0.568,0.5489,0.5488,0.5488,0,0,0,0,0,0,0.6416,0.6392,0.6173,0.6262,0.6232,0.6125,0.6075,0.6057,0.6018,0.5907,0.5887,0.5966,0.5799,0.5777,0.5698,0.5688,0.5681,0.5673,0.5489,0.5488,0.5488,0.5559,0,0,0,0,0,0,0.6425,0.6395,0.6377,0.6262,0.6227,0.6112,0.6075,0.6053,0.6005,0.5998,0.5883,0.5864,0.5798,0.5711,0.569,0.5676,0.5667,0.5489,0.5489,0.5488,0.5557,0.5561,0.5564,0,0,0,0,0,0.6435,0.6404,0.6376,0.6352,0.6202,0.6111,0.6091,0.6017,0.6005,0.5984,0.5912,0.5868,0.5692,0.5704,0.568,0.5663,0.549,0.5489,0.5488,0.5555,0.556,0.5564,0,0,0,0,0,0,0.6519,0.6388,0.6355,0.6286,0.6211,0.6095,0.6067,0.6024,0.595,0.5946,0.5855,0.583,0.576,0.5703,0.5718,0.5606,0.5586,0.5581,0.5646,0.5649,0.5653,0.5668,0.566,0,0,0,0,0,0.653,0.6469,0.6356,0.6306,0.627,0.6175,0.6133,0.6082,0.5999,0.5967,0.5889,0.5809,0.5735,0.5689,0.5615,0.5548,0.552,0.5524,0.5528,0.5531,0.5527,0.5485,0.5485,0.5485,0.5485,0.5485,0,0,0.6551,0.6471,0.6438,0.6321,0.6256,0.6193,0.6149,0.6084,0.6036,0.5956,0.5878,0.5818,0.5722,0.5649,0.5613,0.56,0.5521,0.553,0.5534,0.5528,0.5484,0.5484,0.5484,0.5485,0.5485,0.5485,0,0,0.6557,0.6491,0.6441,0.6378,0.6281,0.6217,0.6206,0.6096,0.6053,0.5973,0.5911,0.5851,0.5727,0.5661,0.5612,0.559,0.5546,0.5568,0.5587,0.5547,0.5547,0.5546,0.5537,0.5535,0.5565,0.5565,0.5565,0,0.6595,0.6499,0.6421,0.6359,0.6308,0.6234,0.6181,0.6122,0.6006,0.5972,0.5959,0.58,0.5731,0.564,0.5635,0.5597,0.5579,0.5581,0.5553,0.5552,0.555,0.554,0.5537,0.5568,0.5568,0.5568,0.5567,0,0.655,0.6484,0.6455,0.6345,0.6291,0.6234,0.6145,0.6099,0.6052,0.599,0.5907,0.5821,0.5728,0.5703,0.5656,0.5604,0.5599,0.5571,0.555,0.5555,0.5544,0.554,0.5573,0.5572,0.5571,0.557,0,0,0.6605,0.6452,0.6442,0.6391,0.6277,0.6223,0.6162,0.6072,0.6033,0.5954,0.5899,0.5795,0.5768,0.5712,0.5656,0.5621,0.5607,0.5597,0.5593,0.5601,0.5543,0.5564,0.5561,0.5577,0.5576,0.5576,0.555,0,0.6595,0.6483,0.641,0.6326,0.6263,0.619,0.6136,0.6059,0.5999,0.5934,0.5866,0.5793,0.5764,0.5729,0.5691,0.5618,0.5594,0.5618,0.5523,0.5521,0.555,0.5556,0.5579,0.5559,0.5546,0.5545,0.5544,0,0.6569,0.6493,0.6404,0.6295,0.6265,0.6219,0.6129,0.6069,0.5979,0.5937,0.5873,0.5817,0.5746,0.5731,0.5631,0.5649,0.5605,0.5563,0.556,0.5548,0.5533,0.5543,0.5551,0.5548,0.5537,0.5538,0.5538,0,0.6617,0.6492,0.6422,0.638,0.6252,0.622,0.6165,0.6075,0.6025,0.5945,0.5911,0.5824,0.5777,0.5709,0.563,0.5626,0.5537,0.5516,0.5499,0.5501,0.5484,0.5486,0.5485,0.5457,0.5457,0.5457,0.5457,0,0.6613,0.6562,0.6442,0.6399,0.6337,0.6252,0.6193,0.6131,0.6051,0.5993,0.5923,0.587,0.5768,0.5702,0.5639,0.5565,0.5544,0.5506,0.549,0.5512,0.5517,0.5482,0.5482,0.5456,0.5456,0.5456,0.5457,0,0.6658,0.6576,0.6494,0.6379,0.6348,0.6308,0.6208,0.6162,0.6097,0.6024,0.6002,0.5899,0.5816,0.573,0.5618,0.5576,0.5504,0.5481,0.5535,0.5526,0.5513,0.5515,0.5489,0.5481,0.546,0.5461,0.5461,0,0.6661,0.6619,0.6499,0.6456,0.6402,0.6333,0.6281,0.6194,0.6143,0.6036,0.6002,0.5915,0.584,0.5711,0.5625,0.5538,0.5513,0.551,0.55,0.5523,0.5512,0.5515,0.551,0.5514,0.5514,0.5515,0.5515,0,0.6676,0.6636,0.6565,0.6479,0.6419,0.6346,0.6271,0.6239,0.6136,0.6081,0.5997,0.5939,0.5824,0.5737,0.564,0.558,0.553,0.5519,0.551,0.5533,0.5565,0.5546,0.5544,0.552,0.552,0.5519,0.5519,0.5519,0.6699,0.6657,0.6566,0.6488,0.6422,0.6352,0.6303,0.6231,0.616,0.606,0.6012,0.5927,0.5835,0.5699,0.564,0.557,0.5556,0.5544,0.5541,0.5539,0.5544,0.5576,0.5552,0.5552,0.5552,0.5552,0.5551,0,0.6709,0.6646,0.6575,0.6472,0.6409,0.6368,0.6282,0.6232,0.6159,0.6077,0.6005,0.5906,0.5821,0.5728,0.5636,0.5598,0.5573,0.5577,0.5579,0.5565,0.5563,0.5579,0.5599,0.5599,0.5599,0.5599,0.5599,0.5599,0.6707,0.6634,0.6584,0.6477,0.6413,0.633,0.6284,0.6218,0.6153,0.6046,0.5975,0.5915,0.5828,0.5729,0.5648,0.5622,0.5591,0.5602,0.557,0.5569,0.5566,0.5562,0.5577,0.5596,0.5596,0.5578,0.5578,0.5578]},{"header":{"parameterUnit":"m.s-1","parameterCategory":1,"la1":30.2991,"la2":30.254,"lo1":-89.0895,"lo2":-89.0444,"dy":0.0017,"dx":0.0017,"nx":28,"ny":28,"refTime":"2024-02-04T09:00:00:Z","depth":0,"parameterNumber":3,"parameterNumberName":"V-component_of_WINDS"},"data":[0,0,0,0,0,0,0,0,0,0,0,0,0,0,0,0,0,0,0,0,0,0,0,0,0,0,0,0,0,0,0,0,0,0,0,0,0,0,0,0,0,0,0,0,0,0,0,0,0,0,0,0,0,0,0,0,0,0,-2.0348,-2.0351,0,-2.0654,-2.0658,-2.0661,-2.0757,-2.0756,-2.0754,-2.0753,-2.1066,-2.1075,-2.1085,0,0,0,0,0,0,0,0,0,0,0,0,0,-1.9845,-1.9853,-2.0347,-2.0351,-2.0355,-2.0654,-2.0658,-2.0662,-2.0757,-2.0755,-2.0754,-2.0752,-2.1062,-2.1074,-2.1086,0,0,0,0,0,0,0,0,0,0,0,0,0,-2.0098,-1.9856,-2.0346,-2.0438,-2.045,-2.0653,-2.0658,-2.0663,-2.0758,-2.0755,-2.0753,-2.0751,-2.1059,-2.1073,-2.1087,-2.1221,0,0,-2.1132,-2.1138,0,0,0,0,0,0,0,0,-2.0084,-2.0117,-2.0421,-2.0432,-2.0445,-2.0665,-2.0596,-2.085,-2.0758,-2.0641,-2.0753,-2.075,-2.0934,-2.0959,-2.1021,-2.1235,-2.1249,-2.1133,-2.1142,-2.1148,-2.1152,0,0,0,0,0,0,0,-2.0066,-2.0104,-2.0469,-2.0425,-2.044,-2.0465,-2.0498,-2.0644,-2.0796,-2.0651,-2.0658,-2.0693,-2.094,-2.1007,-2.1029,-2.1253,-2.1132,-2.1145,-2.1154,-2.116,-2.1596,-2.1599,0,0,0,0,0,0,-2.0033,-2.0089,-2.0459,-2.0478,-2.0256,-2.0475,-2.0513,-2.0597,-2.0795,-2.0823,-2.0695,-2.0697,-2.0983,-2.1012,-2.104,-2.1213,-2.1148,-2.1161,-2.117,-2.1593,-2.1597,-2.16,0,0,0,0,0,0,-2.0022,-2.0065,-2.0447,-2.0286,-2.0336,-2.0486,-2.058,-2.0604,-2.0671,-2.0828,-2.0855,-2.0735,-2.0982,-2.102,-2.1176,-2.1225,-2.1168,-2.1181,-2.159,-2.1594,-2.1598,-2.1556,0,0,0,0,0,0,-2.0007,-2.006,-2.0112,-2.0286,-2.0344,-2.0577,-2.0583,-2.0612,-2.0696,-2.0701,-2.0873,-2.0899,-2.0984,-2.1154,-2.119,-2.1244,-2.1192,-2.1586,-2.1592,-2.1597,-2.1554,-2.1558,-2.1562,0,0,0,0,0,-1.9989,-2.0087,-2.0114,-2.0159,-2.0412,-2.0579,-2.0613,-2.0708,-2.0699,-2.0753,-2.0855,-2.0894,-2.1213,-2.1169,-2.1211,-2.1269,-2.1584,-2.159,-2.1597,-2.1552,-2.1558,-2.1562,0,0,0,0,0,0,-1.9914,-2.0112,-2.0144,-2.0302,-2.0423,-2.0595,-2.0666,-2.071,-2.0836,-2.0836,-2.0948,-2.0987,-2.1135,-2.1218,-2.1165,-2.1411,-2.14,-2.1415,-2.1352,-2.1358,-2.1362,-2.134,-2.1205,0,0,0,0,0,-1.9916,-2.0036,-2.0201,-2.0324,-2.0384,-2.0514,-2.059,-2.0654,-2.0784,-2.0835,-2.0948,-2.1073,-2.1202,-2.1284,-2.1411,-2.1566,-2.1606,-2.1627,-2.1631,-2.1633,-2.1646,-2.1737,-2.1749,-2.1621,-2.1621,-2.1621,0,0,-1.9922,-2.0044,-2.0112,-2.0313,-2.0414,-2.0536,-2.0557,-2.0684,-2.0776,-2.0855,-2.101,-2.1097,-2.1244,-2.14,-2.1475,-2.1474,-2.169,-2.1642,-2.1643,-2.1654,-2.1745,-2.1757,-2.1768,-2.1625,-2.1625,-2.1624,0,0,-1.9995,-2.0098,-2.0214,-2.0315,-2.0469,-2.0556,-2.0583,-2.075,-2.0811,-2.0969,-2.1032,-2.1142,-2.1361,-2.1464,-2.1545,-2.1658,-2.17,-2.1696,-2.1719,-2.1807,-2.1817,-2.1826,-2.187,-2.1884,-2.1708,-2.1708,-2.1708,0,-1.9982,-2.0168,-2.0267,-2.0393,-2.048,-2.0558,-2.0677,-2.077,-2.0957,-2.1016,-2.1012,-2.1291,-2.1394,-2.1578,-2.1606,-2.1668,-2.1704,-2.1678,-2.1807,-2.1818,-2.1828,-2.1871,-2.1887,-2.1706,-2.1707,-2.1707,-2.1707,0,-2.0146,-2.0274,-2.0349,-2.053,-2.0625,-2.0746,-2.0865,-2.095,-2.1004,-2.1091,-2.1252,-2.138,-2.1536,-2.1583,-2.1637,-2.1776,-2.1771,-2.1785,-2.1777,-2.1838,-2.188,-2.1897,-2.1705,-2.1705,-2.1705,-2.1706,0,0,-2.0181,-2.0416,-2.0442,-2.0527,-2.0703,-2.0804,-2.0929,-2.1083,-2.1155,-2.1281,-2.139,-2.1574,-2.159,-2.1682,-2.1749,-2.1825,-2.1911,-2.1831,-2.1836,-2.1844,-2.2074,-2.2064,-2.2081,-2.1939,-2.1942,-2.1945,-2.2063,0,-2.0278,-2.0506,-2.06,-2.0785,-2.0906,-2.0983,-2.1092,-2.1213,-2.1297,-2.1413,-2.1506,-2.1637,-2.1646,-2.1702,-2.1781,-2.1883,-2.1959,-2.1876,-2.2043,-2.2048,-2.2007,-2.2103,-2.2092,-2.2197,-2.208,-2.2083,-2.2085,0,-2.0422,-2.0552,-2.0749,-2.0913,-2.0968,-2.1064,-2.1214,-2.1323,-2.1462,-2.1518,-2.1622,-2.1685,-2.182,-2.1802,-2.1991,-2.1933,-2.2006,-2.2067,-2.2074,-2.2095,-2.2072,-2.2129,-2.2233,-2.225,-2.2111,-2.2109,-2.2107,0,-2.0431,-2.0655,-2.0803,-2.0872,-2.1066,-2.1133,-2.1218,-2.1354,-2.1441,-2.1572,-2.163,-2.1773,-2.1853,-2.1963,-2.2063,-2.204,-2.2245,-2.2233,-2.2297,-2.2295,-2.2338,-2.2335,-2.2458,-2.2381,-2.238,-2.238,-2.238,0,-2.0532,-2.065,-2.081,-2.0901,-2.1036,-2.1143,-2.1275,-2.1364,-2.1485,-2.1596,-2.167,-2.1772,-2.1897,-2.2016,-2.2095,-2.2241,-2.2276,-2.2326,-2.2346,-2.2322,-2.2316,-2.2373,-2.237,-2.2384,-2.2384,-2.2383,-2.2382,0,-2.0566,-2.0677,-2.0844,-2.1015,-2.1061,-2.1154,-2.1301,-2.1393,-2.1481,-2.1621,-2.1659,-2.1798,-2.1942,-2.2053,-2.2238,-2.2292,-2.2448,-2.2468,-2.2402,-2.2413,-2.2471,-2.2465,-2.2638,-2.2668,-2.2567,-2.2568,-2.2569,0,-2.0624,-2.0717,-2.0899,-2.0979,-2.1063,-2.119,-2.128,-2.139,-2.148,-2.1647,-2.1719,-2.1868,-2.1993,-2.2219,-2.2337,-2.248,-2.2506,-2.2557,-2.2528,-2.2501,-2.2511,-2.2505,-2.2517,-2.2561,-2.2562,-2.2562,-2.2562,0,-2.0716,-2.0767,-2.0894,-2.1042,-2.1147,-2.1268,-2.139,-2.1451,-2.1583,-2.1681,-2.183,-2.1927,-2.2118,-2.2266,-2.2422,-2.2509,-2.2559,-2.257,-2.2593,-2.257,-2.2529,-2.2556,-2.2415,-2.2566,-2.2566,-2.2566,-2.2565,-2.2565,-2.0766,-2.0854,-2.0997,-2.1137,-2.1241,-2.1354,-2.145,-2.1551,-2.1677,-2.1843,-2.1899,-2.2053,-2.2191,-2.2406,-2.2495,-2.2617,-2.2619,-2.2651,-2.266,-2.2667,-2.2666,-2.2507,-2.2645,-2.2645,-2.2645,-2.2645,-2.2645,0,-2.0865,-2.0961,-2.1089,-2.1259,-2.1369,-2.1407,-2.1545,-2.1635,-2.1769,-2.1895,-2.2017,-2.2189,-2.2334,-2.2463,-2.2614,-2.2687,-2.2713,-2.2723,-2.272,-2.274,-2.2654,-2.2621,-2.2699,-2.2699,-2.2699,-2.2699,-2.2699,-2.2699,-2.093,-2.1081,-2.115,-2.1354,-2.145,-2.1602,-2.1678,-2.1783,-2.1885,-2.2074,-2.2195,-2.2278,-2.2407,-2.2567,-2.2702,-2.2736,-2.279,-2.2794,-2.2834,-2.2752,-2.2745,-2.2739,-2.2709,-2.2804,-2.2804,-2.291,-2.2911,-2.2912]}]]